BEIDOU-2 IGSO-1

Last updated on Sun Oct 13 2024 00:02:39 GMT+0000 (Coordinated Universal Time)

1 36828U 10036A 24285.63723772 -.00000114 00000+0 00000+0 0 9990 2 36828 54.2542 168.5167 0040838 203.3275 342.3592 1.00248585 52053
UTC large
Height (km)
Speed (km/s)
/
Latitude / Longitude
Inclination (degrees)
Orbital Period (minutes)
Azimuth
Elevation
Range (km)
Doppler Factor

Next 0 passes for location: London (51.5072 / 0.1276)

Sorry there are no passes over London.